Regional Weather Roundup
Issued by NWS

Home | Current Version | Previous Version | Graphics & Text | Print | Product List | Glossary On
Versions: 1 2 3 4 5 6 7 8 9 10 11 12 13 14 15 16 17 18 19 20 21 22 23 24 25 26 27
000
ASUS45 KBOU 181410
RWRCO

WEATHER ROUNDUP FOR COLORADO
NATIONAL WEATHER SERVICE DENVER/BOULDER CO
700 AM MST THU JAN 18 2018

NOTE: "FAIR" INDICATES FEW OR NO CLOUDS BELOW 12000 FEET WITH NO
SIGNIFICANT WEATHER AND/OR OBSTRUCTIONS TO VISIBILITY.

COZ001>005-013-030-031-181500-
...NORTHWEST COLORADO...

CITY           SKY/WX    TMP DP  RH WIND       PRES   REMARKS
CRAIG          FAIR      13   8  81 SW5       30.33R WCI   5
HAYDEN         FAIR     N/A N/A N/A E10       30.33R
MEEKER         FAIR      18  14  84 NE5       30.31R WCI  11
RABBIT EARS PA FAIR      21  14  73 W6        30.28S WCI  14
STEAMBOAT SPGS FAIR      10   8  92 CALM      30.32R
WALDEN         FAIR      14   7  73 SE5       30.28S WCI   6
$$

COZ006>008-011-181500-
...WEST CENTRAL VALLEYS...

CITY           SKY/WX    TMP DP  RH WIND       PRES   REMARKS
GRAND JUNCTION FAIR      19  14  81 CALM      30.32R
MONTROSE       FAIR      19  11  70 SE9       30.35R WCI   8
EAGLE          FAIR       9   4  80 CALM      30.41R
RIFLE          FAIR      18  13  80 CALM      30.34R
DELTA          FAIR      20  12  72 NE5       30.35S WCI  13
NUCLA          FAIR      19  12  73 SE5       30.35S WCI  13
$$

COZ017>023-064>068-181500-
...SOUTHWEST COLORADO...

CITY           SKY/WX    TMP DP  RH WIND       PRES   REMARKS
DURANGO        FAIR      10   9  95 E6        30.28S WCI   0
CORTEZ         FAIR      13  10  88 NE7       30.31R WCI   3
PAGOSA SPRINGS FAIR      15  12  91 CALM      30.28R
TELLURIDE      FAIR      24   5  44 SE7       30.33R WCI  16
WOLF CREEK PAS FAIR      27 -18  13 CALM      30.37S
$$

COZ009-010-012-014-032>034-037-058>063-181500-
...CENTRAL COLORADO...

CITY           SKY/WX    TMP DP  RH WIND       PRES   REMARKS
ASPEN          FAIR      13   7  77 W3        30.30S
BUENA VISTA    FAIR      11   3  70 W7        30.26R WCI   0
COPPER MTN     NOT AVBL
BERTHOUD PASS  FAIR      19   9  63 NW17G33   30.30R WCI   4
COTTONWOOD PAS   N/A     36  -8  15 NW5       30.25S
GUNNISON       FAIR       0  -4  83 CALM      30.40S
KREMMLING      FAIR       3  -2  78 CALM      30.40S
LEADVILLE      FAIR       8   1  73 N5        30.28S WCI   0
MONARCH PASS   FAIR      23  -6  28 W14G21    30.41R WCI  11
SALIDA         FAIR      21   8  55 CALM      30.32S
SUNLIGHT       FAIR      28  -6  22 N3        30.35S
WILKERSON PASS FAIR      30 -17  12 N10G20    30.28R WCI  21
$$

COZ069>075-181500-
...SAN LUIS VALLEY/SANGRE DE CRISTO MOUNTAINS...

CITY           SKY/WX    TMP DP  RH WIND       PRES   REMARKS
ALAMOSA        FAIR       1  -8  66 CALM      30.29S
DEL NORTE      FAIR      19   0  44 W12       30.29S WCI   6
LA VETA PASS   FAIR      23   3  42 SW24        N/A  WCI   7
SAGUACHE       FAIR      14   5  67 E5        30.29S WCI   6
$$

COZ035-036-038>040-181500-
...NORTHERN COLORADO FRONT RANGE...

CITY           SKY/WX    TMP DP  RH WIND       PRES   REMARKS
DENVER INTL AP MOCLDY    34  11  38 S10       30.06F WCI  26
DMNS CITY PARK NOT AVBL
AURORA         MOCLDY    33  11  39 S12       30.08F WCI  24
FRONT RANGE AP PTCLDY    32  19  59 S10       30.07F WCI  24
ERIE MUNI ARPT FAIR      16  12  84 CALM      30.12S
BOULDER MUN AP FAIR      28  14  54 CALM      30.06S
CENTENNIAL     FAIR      30  10  43 SE7       30.08F WCI  23
BROOMFIELD     NOT AVBL
FORT COLLINS   FAIR      20  14  77 NE8       30.09R WCI  10
LONGMONT       FAIR      22  15  74 W3        30.09S
$$

COZ041-046-047-076>085-087-088-181500-
...PIKES PEAK/PALMER DIVIDE AND SOUTHERN FOOTHILLS...

CITY           SKY/WX    TMP DP  RH WIND       PRES   REMARKS
COLO. SPRINGS  FAIR      24   8  50 N5        30.13F WCI  18
A. F. ACADEMY  FAIR      21   7  53 N10       30.13S WCI  10
SCHRIEVER AFB  FAIR      28   6  38 CALM      30.13F
CHEYENNE MTN   FAIR      38   4  24 CALM      30.09S
ELLICOTT         N/A      1   1 100 N5        30.11F WCI  -9
FALCON         FAIR      29   6  37 NW7       30.14S WCI  22
FORT CARSON    FAIR      25   7  45 NW8       30.11F WCI  16
LIMON          FAIR      10   5  80 N7        30.11F WCI  -1
MONUMENT HILL  FAIR      27   9  46 S10       30.14F WCI  17
CANON CITY     FAIR      37  10  32 W16G24    30.13F
WALSENBURG     FAIR      39   9  28 W18       30.15R
TRINIDAD       FAIR      21   5  50 W13       30.16R WCI   9
$$

COZ042>045-048>051-090-091-181500-
...NORTHEAST COLORADO...

CITY           SKY/WX    TMP DP  RH WIND       PRES   REMARKS
GREELEY ARPT   FAIR      12   8  84 N3        30.10S
AKRON          FAIR      28  12  51 W14       30.05F WCI  17
BURLINGTON     FAIR      23  11  60 SW10      30.10F WCI  12
WRAY           FAIR      21  16  79 W5        30.07F WCI  15
YUMA           FAIR      23  12  63 W10       30.05F WCI  12
STERLING       FAIR      18  14  86 SW8       30.07S WCI   7
HOLYOKE        FAIR      25  18  74 W9        30.04F WCI  15
FORT MORGAN    FAIR      16  10  79 W10       30.09S WCI   3
$$

COZ086-089-092>099-181500-
...SOUTHEAST COLORADO...

CITY           SKY/WX    TMP DP  RH WIND       PRES   REMARKS
PUEBLO         FAIR      15   6  67 W3        30.13F
LA JUNTA       FAIR      22   9  57 W12       30.15S WCI  10
LAMAR          FAIR      16   9  74 W10       30.14S WCI   4
SPRINGFIELD      N/A     15   8  73 W7        30.13F WCI   5
$$




USA.gov is the U.S. government's official web portal to all federal, state and local government web resources and services.